Tracking 22124 objects as of 25-Jan-2021
HD Live streaming from Space Station
objects crossing your sky now

STARLINK 1030

Track STARLINK 1030 now!
10-day predictions
STARLINK 1030 is classified as:


NORAD ID: 44735
Int'l Code: 2019-074Y
Perigee: 552.7 km
Apogee: 555.9 km
Inclination: 53.1 °
Period: 95.6 minutes
Semi major axis: 6925 km
RCS: Unknown
Launch date: November 11, 2019
Source: United States (US)
Launch site: AIR FORCE EASTERN TEST RANGE (AFETR)
aabbcc
Your satellite tracking list
Your tracking list is empty




NASA's NSSDC Master Catalog

Two Line Element Set (TLE):
1 44735U 19074Y   21024.95879686  .00000436  00000-0  48150-4 0  9996
2 44735  53.0580 320.1450 0002280  69.3288 290.7945 15.06408664 66658
Source of the keplerian elements: AFSPC